Flag for U.S.A. Weather past 2 weeks in Idaho Falls, Idaho, U.S.A.

Now
60 °F

Clear.


Feels Like: 60 °F
Forecast: 61 / 88 °F
Wind: 3 mph from North

Location: Fanning Field

Current Time: Aug 29, 2015 at 12:48:31 AM

Latest Report: Aug 28, 2015 at 11:53 PM


Visibility: 10 mi

Pressure: 29.97 "Hg (25.30 "Hg at 1429m altitude)

Humidity: 72%

Dew point: 51 °F

Location of Idaho FallsLocation

Historic Weather in Idaho Falls — Graph

°F

Idaho Falls temperature yesterday

Maximum temperature yesterday: 89 °F (at 4:53 PM)
Minimum temperature yesterday: 48 °F (at 5:53 AM)
Average temperature yesterday: 69 °F

Past Weeks' High & Low Weather Summary

 TemperatureHumidityPressure
High95 °F (Aug 25, 3:53 PM)93% (Aug 27, 1:53 AM)30.18 "Hg (Aug 27, 1:53 AM)
Low38 °F (Aug 23, 6:53 AM)10% (Aug 23, 2:53 PM)29.63 "Hg (Aug 21, 6:53 PM)
Average67 °F45%29.99 "Hg
* Reported Aug 13 10:53 PM — Aug 28 10:53 PM, Idaho Falls, Weather by CustomWeather, © 2015

Note: Actual official high and low records may vary slightly from our data, if they occured in-between our weather recording intervals... More about our weather records

Advertising

Idaho Falls weather history for previous 24 hours

 ConditionsComfort  
Time TempWeatherWind HumidityBarometerVisibility
10:53 PM
Fri, Aug 28
63 °FClear.3 mph65%29.98 "Hg10 mi
9:53 PM76 °FSunny.10 mph27%29.96 "Hg10 mi
8:53 PM76 °FSunny.8 mph31%29.96 "Hg10 mi
7:53 PM82 °FSunny.7 mph24%29.95 "Hg10 mi
6:53 PM85 °FPassing clouds.13 mph21%29.96 "Hg10 mi
5:53 PM88 °FScattered clouds.14 mph18%29.97 "Hg10 mi
4:53 PM89 °FScattered clouds.10 mph16%29.97 "Hg10 mi
3:53 PM88 °FSunny.8 mph15%29.99 "Hg10 mi
2:53 PM88 °FHaze.6 mph17%30.01 "Hg6 mi
1:53 PM84 °FHaze.7 mph22%30.04 "Hg6 mi
12:53 PM81 °FSunny.5 mph29%30.06 "Hg7 mi
11:53 AM74 °FSunny.3 mph43%30.09 "Hg10 mi
10:53 AM67 °FSunny.No wind53%30.12 "Hg10 mi
9:53 AM62 °FSunny.5 mph58%30.14 "Hg10 mi
8:53 AM57 °FSunny.5 mph67%30.15 "Hg10 mi
7:53 AM54 °FClear.7 mph72%30.14 "Hg10 mi
6:53 AM49 °FClear.5 mph80%30.12 "Hg10 mi
5:53 AM48 °FClear.3 mph83%30.13 "Hg10 mi
4:53 AM49 °FClear.No wind84%30.09 "Hg10 mi
3:53 AM50 °FClear.3 mph80%30.07 "Hg10 mi
2:53 AM58 °FClear.10 mph60%30.04 "Hg10 mi
1:53 AM59 °FClear.9 mph54%30.05 "Hg10 mi
12:53 AM62 °FClear.7 mph48%30.04 "Hg10 mi
Weather by CustomWeather, © 2015

See weather overviewHow to use our weather pages